EDT,Max TemperatureF,Mean TemperatureF,Min TemperatureF,Max Dew PointF,MeanDew PointF,Min DewpointF,Max Humidity, Mean Humidity, Min Humidity, Max Sea Level PressureIn, Mean Sea Level PressureIn, Min Sea Level PressureIn, Max VisibilityMiles, Mean VisibilityMiles, Min VisibilityMiles, Max Wind SpeedMPH, Mean Wind SpeedMPH, Max Gust SpeedMPH,PrecipitationIn, CloudCover, Events, WindDirDegrees
2013-6-1,89,76,62,72,66,63,100,74,43,30.19,30.14,30.08,10,8,0,17,5,24,0.00,2,,192
2013-6-2,87,76,64,70,67,63,100,75,48,30.12,30.03,29.97,10,9,0,17,7,23,0.00,2,,187
2013-6-3,84,75,66,73,69,64,100,90,70,30.00,29.94,29.87,10,9,1,16,6,24,0.98,4,Thunderstorm,188
2013-6-4,84,74,64,72,68,64,100,83,62,30.11,30.01,29.93,10,8,0,13,3,17,0.00,5,,67
2013-6-5,82,72,62,64,62,59,94,71,45,30.13,30.09,30.04,10,10,10,14,5,20,0.00,1,,67
2013-6-6,78,72,66,73,68,61,100,86,73,30.07,29.95,29.88,10,10,3,15,6,22,0.15,4,,117
2013-6-7,80,74,69,75,71,68,100,86,74,29.88,29.70,29.54,10,9,3,28,12,41,1.52,6,,178
2013-6-8,89,80,71,75,71,68,100,76,52,30.12,29.97,29.86,10,10,7,18,8,25,0.00,3,,200
2013-6-9,91,81,71,75,73,70,100,84,52,30.18,30.14,30.10,10,8,1,12,4,,0.20,5,,180
2013-6-10,87,78,69,75,72,66,100,84,62,30.16,30.06,29.97,10,10,8,20,9,25,0.49,4,Thunderstorm,178
2013-6-11,87,79,71,72,70,66,100,81,51,30.01,29.95,29.90,10,10,7,16,9,28,0.12,4,Thunderstorm,213
2013-6-12,91,78,66,73,68,64,100,72,46,30.00,29.94,29.89,10,8,0,14,4,17,0.00,0,,221
2013-6-13,98,84,69,77,71,59,94,68,39,29.90,29.77,29.63,10,9,4,23,8,37,0.48,1,Thunderstorm,208
2013-6-14,78,69,60,68,60,54,94,68,42,30.04,29.85,29.72,10,10,10,15,5,25,0.00,1,Thunderstorm,311
2013-6-15,86,70,53,63,56,52,94,64,35,30.13,30.09,30.04,10,10,10,16,3,18,0.00,0,,212
2013-6-16,87,73,59,64,62,57,94,68,43,30.18,30.11,30.05,10,10,8,16,6,21,0.00,1,,202
2013-6-17,89,76,64,72,68,61,94,77,49,30.10,30.04,29.99,10,10,9,15,7,26,0.00,2,,191
2013-6-18,89,79,69,73,71,68,100,78,55,30.02,29.91,29.80,10,10,6,18,8,29,0.00,2,Thunderstorm,202
2013-6-19,78,73,66,70,67,63,94,85,65,30.11,29.98,29.86,10,9,3,13,6,,1.18,6,Thunderstorm,12
2013-6-20,84,73,62,64,60,54,94,69,37,30.23,30.17,30.11,10,10,10,15,9,23,0.00,1,,16
2013-6-21,82,71,60,73,66,57,94,84,65,30.23,30.20,30.15,10,9,2,15,7,21,0.16,4,,10
2013-6-22,78,74,69,75,71,68,100,92,83,30.19,30.16,30.13,10,9,2,15,7,21,1.59,5,Thunderstorm,107
2013-6-23,87,76,66,75,71,66,100,88,62,30.22,30.19,30.17,10,8,0,15,3,17,0.04,2,Thunderstorm,180
2013-6-24,84,76,69,75,72,70,100,91,70,30.25,30.19,30.13,10,9,0,13,4,18,0.57,2,Thunderstorm,188
2013-6-25,91,80,69,75,72,66,100,83,55,30.16,30.11,30.05,10,9,1,14,7,23,0.37,3,Thunderstorm,207
2013-6-26,91,81,71,75,72,70,100,83,55,30.06,30.01,29.94,10,9,3,14,7,21,0.51,2,Thunderstorm,205
2013-6-27,91,80,68,79,71,66,94,82,62,29.94,29.90,29.81,10,10,7,18,9,25,0.00,2,Thunderstorm,198
2013-6-28,91,84,77,79,75,70,89,74,59,29.71,29.67,29.63,10,10,9,16,10,18,0.00,1,,193
2013-6-29,84,78,73,75,73,70,100,82,70,29.80,29.70,29.63,10,10,7,21,9,26,0.00,4,,184
2013-6-30,84,78,71,75,73,70,100,89,70,29.91,29.84,29.77,10,9,2,17,9,24,0.00,4,Thunderstorm,162